www.pogodaiklimat.ru

Погода и климат >> Архив погоды >> Россия >> Татарстан >> Тетюши


ПОГОДА в Тетюшах

  • Прогноз погоды в Тетюшах
  • Монитор погоды в Тетюшах

АРХИВ ПОГОДЫ в Тетюшах

Время (UTC), дата Ветер
(напр.,м/с)
 
Видим.   Явления Облачность Т
(С)
Тd
(С)
f
(%)
Тe
(С)
Тes
(С)
Комфортность P
(гПа)
Po
(гПа)
Тmin
(С)
Tmax
(С)
R
(мм)
R24
(мм)
S
(см)
03 13.08 З 4 20 км ясно +7.4 +4.7 83 +4 +5 1013.8 994.7 +4.9
06 13.08 СЗ 11-16
{16}
20 км ясно +13.2 +4.0 54 +10 +10 1013.3 994.5
09 13.08 СЗ 9-13
{16}
20 км 3/0
[Ac trans]
+16.3 +3.5 42 +15 +16 1012.8 994.3
12 13.08 СЗ 9-13
{14}
20 км ясно +18.0 +3.0 37 +17 +18 1013.3 994.9
15 13.08 СЗ 5
{13}
20 км 4/0
[Ac trans Ci fib]
+16.8 +3.8 42 +16 +16 1013.7 995.2 +18.3
18 13.08 З 2 20 км 3/0
[Ac trans]
+11.1 +4.9 66 +10 +10 1015.2 996.3
21 13.08 Ю 1 20 км ясно +10.5 +4.4 66 +10 +10 1015.1 996.2
00 14.08 З 3 20 км 4/0
[Ac trans]
+6.9 +4.0 82 +4 +4 1015.2 996.0
03 14.08 ЮЗ 1 20 км 6/0
[Ac trans Ci fib]
+9.2 +5.2 76 +9 +10 1015.5 996.4 +6.6
06 14.08 З 2 20 км 6/0
[Ac trans Ci fib]
+16.5 +8.6 60 +17 +23 1015.0 996.5
09 14.08 СЗ 1 20 км 8/0
[Ac trans Ci]
+19.8 +7.9 46 +22 +31 комфорт 1013.4 995.1
12 14.08 В 1 20 км 8/0
[Ac trans Ci fib]
+19.4 +8.1 48 +21 +26 комфорт 1013.3 995.0
15 14.08 В 1 20 км 8/0
[Ac trans]
+18.2 +11.7 66 +20 +20 1013.8 995.4 +20.4
18 14.08 В 1 20 км 10/6 600 м
[Sc As op]
+16.5 +11.4 72 +17 +17 1014.7 996.2
21 14.08 В 1 20 км 10/6 600 м
[Sc As op]
+16.2 +10.3 68 +17 +17 1014.7 996.2
00 15.08 В 1 20 км 6/0
[Ac trans]
+14.4 +11.3 82 +15 +15 1015.5 996.8
03 15.08 СВ 1 20 км 8/6 600 м
[Sc Ac trans]
+16.1 +13.3 83 +17 +17 1016.1 997.5 +14.4
06 15.08 Ю 2 20 км 6/0
[Ac trans Ci fib]
+22.2 +9.7 45 +24 +30 комфорт 1015.9 997.7
09 15.08 ЮВ 3 20 км 4/0
[Ci fib]
+24.3 +10.7 42 +25 +35 комфорт 1015.5 997.4
12 15.08 ЮВ 4 20 км 3/0
[Ci fib]
+25.5 +12.6 45 +27 +32 жарко 1014.7 996.7
15 15.08 ЮВ 3 20 км ясно +24.6 +13.6 50 +27 +27 жарко 1014.1 996.2 +26.0
18 15.08 ЮВ 4 20 км 4/0
[Ac trans]
+21.4 +13.4 60 +24 +24 комфорт 1014.5 996.3
21 15.08 ЮВ 4 20 км 3/0
[Ac trans]
+20.2 +13.6 66 +22 +22 комфорт 1014.4 996.2
00 16.08 Ю 1 20 км ясно +18.8 +13.3 70 +21 +21 комфорт 1014.6 996.2
03 16.08 В 1 20 км 6/0
[Ac trans Ci fib]
+19.6 +14.2 71 +22 +23 комфорт 1014.7 996.4 +18.4
06 16.08 ЮВ 2 20 км 8/4 600 м
[Cu med, cong Ac trans Ci fib]
+23.9 +14.0 54 +26 +30 жарко 1013.7 995.7
09 16.08 Ю 4 20 км 8/0
[Ac trans Ci fib]
+29.4 +13.7 38 +31 +37 жарко 1012.7 995.0
12 16.08 С 5
{13}
20 км 10/6 600 м
[Cb cap As op]
+23.9 +17.2 66 +28 +28 душно 1014.9 996.8
15 16.08 СВ 4 20 км 8/0
[Ac trans Ci fib]
+22.1 +16.4 70 +26 +26 душно 1014.0 995.9 +29.6
18 16.08 СВ 2 20 км 8/0
[Ac trans Ci fib]
+19.3 +16.2 82 +22 +22 комфорт 1014.1 995.8
21 16.08 В 3 20 км 10/0
[As op]
+19.3 +16.4 83 +21 +21 комфорт 1014.0 995.7
00 17.08 СВ 5 20 км 8/0
[Ac trans]
+18.5 +16.9 90 +19 +19 1013.3 995.0
03 17.08 В 1 20 км слаб. ливневой дождь 10/8 300 м
[Cb cap As op]
+18.2 +16.5 90 +20 +20 1013.7 995.3 +17.7 0.5
06 17.08 ЮЗ 1 20 км {ливн. осадки} 10/6 600 м
[Cb cap As op]
+20.6 +17.2 81 +25 +26 комфорт 1014.4 996.2
09 17.08 З 3 20 км слаб. ливневой дождь 10/8 300 м
[Cb cap As op]
+21.0 +17.7 81 +25 +26 комфорт 1015.3 997.1
12 17.08 В 3 20 км {ливн. осадки} 10/6 600 м
[Cb cap As op]
+22.7 +18.2 76 +28 +29 душно 1015.1 997.0
15 17.08 СЗ 1 20 км 10/6 600 м
[Cb cap As op]
+21.4 +18.8 85 +26 +26 душно 1015.5 997.3 +23.4 1
18 17.08 СВ 3 20 км 8/6 600 м
[Cb cap Ac trans]
+19.4 +17.6 89 +22 +22 комфорт 1015.2 996.9
21 17.08 СВ 3 20 км 10/6 600 м
[Cb cap As op]
+19.1 +17.1 88 +21 +21 комфорт 1014.8 996.5
00 18.08 СВ 5 20 км 10/6 600 м
[Cb cap As op]
+18.9 +17.3 90 +20 +20 1014.4 996.1
03 18.08 В 2 20 км 8/6 600 м
[Cb cap Ac trans]
+18.5 +17.2 92 +20 +20 1014.3 996.0 +18.3
06 18.08 ЮВ 2 20 км 8/0
[Ac trans]
+22.1 +14.3 61 +25 +29 комфорт 1014.9 996.7
09 18.08 В 2 20 км 8/0
[Ac trans]
+22.1 +14.7 63 +25 +32 комфорт 1015.1 996.9
12 18.08 ЮВ 4 20 км 8/0
[Ac trans Ci fib]
+26.5 +12.4 42 +28 +31 жарко 1015.4 997.5
15 18.08 ЮВ 4 20 км 8/0
[Ac trans Ci fib]
+24.5 +11.4 44 +26 +26 жарко 1015.8 997.7 +27.9
18 18.08 ЮВ 2
{12}
20 км в посл. час ливневой дождь 10/6 600 м
[Cb cap As op]
+19.9 +14.2 70 +23 +23 комфорт 1017.1 998.8
21 18.08 В 2 20 км 8/8 600 м
[Cb cap]
+20.2 +12.4 61 +23 +23 комфорт 1017.3 999.0
00 19.08 В 2 20 км 8/8 600 м
[Cb cap]
+19.1 +12.7 66 +21 +21 комфорт 1018.1 999.7
03 19.08 В 2 20 км 10/6 600 м
[Cb cap As op]
+17.5 +14.1 80 +18 +18 1018.3 999.9 +17.4 2
06 19.08 СВ 2 20 км 10/6 600 м
[Cb cap As op]
+19.0 +14.3 74 +21 +21 комфорт 1018.8 1000.4
09 19.08 В 2 20 км 8/0
[Ac trans]
+25.3 +15.6 55 +28 +34 жарко 1017.9 999.9
12 19.08 Ю 3 20 км 8/0
[Ac trans]
+27.9 +15.6 47 +31 +34 душно 1017.3 999.4
15 19.08 ЮВ 2 20 км 10/0
[As op]
+24.2 +16.8 63 +28 +28 душно 1017.3 999.3 +28.1
18 19.08 СЗ 1 20 км 8/0
[Ac trans]
+20.7 +15.6 73 +25 +25 комфорт 1017.5 999.3
21 19.08 ЮЗ 2 20 км 10/0
[As op]
+19.0 +15.5 80 +21 +21 комфорт 1017.8 999.4
00 20.08 З 3 20 км 10/6 600 м
[Cb cap As op]
+18.5 +15.8 84 +19 +19 1018.4 1000.0

 

Местоположение метеостанции Тетюши (Татарстан, Россия): широта 54.95 долгота 48.78 высота над уровнем моря 157 м.

В архиве по умолчанию представлена погода в Тетюшах за последнюю неделю. Архивные данные за месяц целиком и за предыдущие месяцы, начиная с января 2011 года, Вы можете получить, выбрав интересующий диапазон дат из раскрывающегося списка и нажав кнопку "Ввод!".


*Определитесь, кто Вы:
робот инопланетянин человек

Внимание! Время в таблицах - всемирное. Для получения местного времени необходимо прибавить поправку, которая равна 3 ч.

Смотрите также архив погоды в соседних городах и на ближайших метеорологических станциях:

Погода в Камском Устье (Татарстан, Россия) (42 км)
Погода в Больших Кайбицах (Татарстан, Россия) (63 км)
Погода в Лаишево (Татарстан, Россия) (71 км)
Погода в Батырево (Чувашия, Россия) (76 км)
Погода в Дрожжаном (Татарстан, Россия) (82 км)
Погода в Ульяновске (Ульяновская область, Россия) (84 км)
Погода в Казани (Татарстан, Россия) (91 км)
Погода в Алексеевском (Татарстан, Россия) (91 км)
Погода в Димитровграде (Ульяновская область, Россия) (96 км)
Погода в Вязовых (Татарстан, Россия) (98 км)

Пояснения к столбцам:

Ветер - указаны скорость ветра в м/с - средняя за 10 мин, порывы в срок и между сроками (в фигурных скобках) и направление, откуда дует ветер: С - северный, СВ - северо-восточный, В - восточный, ЮВ - юго-восточный, Ю - южный, ЮЗ - юго-западный, З - западный, СЗ - северо-западный.
Видимость - горизонтальная дальность видимости в метрах или километрах. При видимости от 1 до 10 км при отсутствии осадков обычно наблюдается дымка, при ухудшении видимости до 1 км и менее - туман. В сухую погоду видимость может ухудшаться дымом, пылью или мглою.
Явления - указаны атмосферные явления, наблюдавшиеся в срок или в последний час перед сроком; фигурными скобками обозначены явления, наблюдавшиеся между сроками (за 1-3 часа до срока); квадратными скобками обозначены град или гололедные отложения с указанием их диаметра в мм.
Облачность - указаны через наклонную черту общая и нижняя облачность в баллах и высота нижней границы облаков в метрах; квадратными скобками обозначены формы облаков: Ci - перистые, Cs - перисто-слоистые, Cc - перисто-кучевые, Ac - высококучевые, As - высокослоистые, Sc - слоисто-кучевые, Ns - слоисто-дождевые, Cu - кучевые, Cb - кучево-дождевые. Подробнее классификацию облаков см. в Атласе облаков (PDF).
T - Температура воздуха - температура, измеренная на высоте 2 м над землей.
Td - Температура точки росы - температура, при понижении до которой содержащийся в воздухе водяной пар достигнет насыщения.
f - Относительная влажность воздуха - влажноcть воздуха, измеренная на высоте 2 м над землей.
Te - Эффективная температура - температура, которую ощущает одетый по сезону человек в тени. Характеристика душности погоды. При расчете учитывается влияние влажности воздуха и скорости ветра на теплоощущения человека.
Tes - Эффективная температура на солнце - температура, которую ощущает человек, с поправкой на солнечный нагрев. Характеристика знойности погоды. Зависит от высоты солнца над горизонтом, облачности и скорости ветра. Ночью, в пасмурную погоду, а также при ветре 12 м/с и более поправка равна нулю.
P - Атмосферное давление - приведенное к уровню моря атмосферное давление.
Po - Атмосферное давление - измеренное на уровне метеостанции атмосферное давление.
Tmin - Минимальная температура - минимум температуры воздуха на высоте 2 м над землей.
Tmax - Максимальная температура - максимум температуры воздуха на высоте 2 м над землей.
R - Количество осадков - Количество выпавших осадков за период времени, мм. При наведении курсора мыши на число - период времени, за который выпало указанное количество осадков.
R24 - Количество осадков - Количество выпавших осадков за 24 часа, мм.
S - Снежный покров - Высота снежного покрова, см. При наведении курсора мыши на число - состояние снежного покрова и степень покрытия местности в баллах.